Location: Unspecified
(22.6800°N, 112.2000°E)
Time: 11:34:56
(UTC+08:00)

Transit 2A - Pass Details

Date: 05 August 2021
Orbit: 595 x 963 km, 66.7° (Epoch: 16 September)

Event Time Altitude Azimuth Distance (km) Brightness Sun altitude
Rises 04:09:11 0° 173° (S) 2,829 - -24.7°
Reaches altitude 10° 04:11:50 10° 157° (SSE) 1,919 - -24.2°
Exits shadow 04:12:33 13° 150° (SSE) 1,716 7.8 -24.1°
Maximum altitude 04:15:04 21° 107° (ESE) 1,346 7.7 -23.6°
Drops below altitude 10° 04:18:21 10° 58° (ENE) 1,948 9.2 -23.0°
Sets 04:21:03 0° 42° (NE) 2,887 10.3 -22.4°
